AP893 Weather Reports


time (UTC)temp
C
wind
direction
speed
KPH
gust
KPH
rain 1hr
cm
rain 24hr
cm
rain mn
cm
humidity
%
barometer
mb
20260906214010 26 151 8.0 19.3 0.00 0.30 0.28 27 1018.4
20260906213010 25 11 1.6 14.5 0.00 0.30 0.28 28 1018.4
20260906212009 25 308 1.6 11.3 0.00 0.30 0.28 28 1018.5
20260906211010 26 163 8.0 14.5 0.00 0.30 0.28 27 1018.6
20260906210009 26 134 3.2 14.5 0.00 0.30 0.28 27 1018.5
20260906205010 26 167 4.8 20.9 0.00 0.30 0.28 27 1018.5
20260906204010 26 249 6.4 19.3 0.00 0.30 0.28 27 1018.5
20260906203009 27 301 6.4 20.9 0.00 0.30 0.28 26 1018.5
20260906202010 27 82 3.2 16.1 0.00 0.30 0.28 26 1018.4
20260906201010 27 281 3.2 14.5 0.00 0.30 0.28 26 1018.4
20260906200010 27 187 8.0 16.1 0.00 0.30 0.28 27 1018.3
20260906195010 27 149 3.2 14.5 0.00 0.30 0.28 29 1018.3
20260906194010 27 275 1.6 14.5 0.00 0.30 0.28 29 1018.3
20260906193010 27 282 3.2 19.3 0.00 0.30 0.28 28 1018.3
20260906192011 27 268 4.8 16.1 0.00 0.30 0.28 27 1018.3
20260906190010 27 156 8.0 16.1 0.00 0.30 0.28 28 1018.3
20260906185010 26 149 6.4 16.1 0.00 0.30 0.28 29 1018.1
20260906184010 26 158 4.8 19.3 0.00 0.30 0.28 30 1018.1
20260906183010 26 15 3.2 14.5 0.00 0.30 0.28 29 1018.1
20260906182010 26 33 3.2 12.9 0.00 0.30 0.28 29 1018.1
20260906180010 25 335 0.0 12.9 0.00 0.30 0.28 32 1018.1
20260906175009 25 343 4.8 16.1 0.00 0.30 0.28 31 1018.2
20260906174009 25 1 6.4 19.3 0.00 0.30 0.28 32 1018.1
20260906173009 25 138 3.2 14.5 0.20 0.30 0.28 33 1018.2
20260906172010 24 59 1.6 11.3 0.25 0.30 0.28 34 1018.1
20260906171009 23 230 0.0 4.8 0.28 0.30 0.28 36 1018.0
20260906170010 23 249 4.8 14.5 0.28 0.30 0.28 37 1017.9
20260906165009 22 160 0.0 4.8 0.28 0.30 0.28 40 1017.9
20260906164010 22 61 0.0 4.8 0.28 0.30 0.28 41 1017.8
20260906163010 22 158 0.0 9.7 0.08 0.10 0.08 42 1017.8
20260906162010 21 127 1.6 11.3 0.03 0.05 0.03 44 1017.9
20260906161010 21 104 0.0 0.0 0.00 0.03 0.00 46 1017.9
20260906155010 18 104 0.0 0.0 0.00 0.03 0.00 53 1018.0
20260906154009 17 104 0.0 0.0 0.00 0.03 0.00 54 1018.0
20260906153010 16 104 0.0 0.0 0.00 0.03 0.00 57 1018.0
20260906152009 16 104 0.0 8.0 0.00 0.03 0.00 60 1018.0
20260906151012 15 108 3.2 9.7 0.00 0.03 0.00 64 1018.0
20260906150009 14 131 1.6 8.0 0.00 0.03 0.00 68 1017.9
20260906145009 13 160 1.6 9.7 0.00 0.03 0.00 73 1017.8
20260906144010 13 140 3.2 9.7 0.00 0.03 0.00 76 1017.5
20260906143009 12 173 1.6 9.7 0.00 0.03 0.00 80 1017.5
20260906142010 11 138 1.6 11.3 0.00 0.03 0.00 83 1017.5
20260906141010 11 186 1.6 8.0 0.00 0.03 0.00 85 1017.4
20260906140010 11 153 3.2 4.8 0.00 0.03 0.00 86 1017.3
20260906134010 11 165 1.6 4.8 0.00 0.03 0.00 87 1017.1
20260906132009 10 131 0.0 9.7 0.00 0.03 0.00 91 1017.0
20260906131009 10 0 0.0 0.0 0.00 0.03 0.00 92 1017.1
20260906130009 10 0 0.0 0.0 0.00 0.03 0.00 91 1017.1
20260906125009 10 0 0.0 0.0 0.00 0.03 0.00 91 1017.1
20260906124009 10 0 0.0 0.0 0.00 0.03 0.00 91 1017.1
20260906121009 10 0 0.0 0.0 0.00 0.03 0.00 91 1017.2
20260906120009 10 0 0.0 0.0 0.00 0.03 0.00 91 1017.2
20260906115010 10 0 0.0 0.0 0.00 0.03 0.00 91 1017.2
20260906114010 10 0 0.0 0.0 0.00 0.03 0.00 91 1017.2
20260906113009 10 0 0.0 0.0 0.00 0.03 0.00 90 1017.2
20260906112010 10 0 0.0 0.0 0.00 0.03 0.00 90 1017.1
20260906110009 10 0 0.0 0.0 0.00 0.03 0.00 90 1017.1
20260906105010 10 0 0.0 0.0 0.00 0.03 0.00 89 1017.1
20260906103011 11 0 0.0 0.0 0.00 0.03 0.00 88 1017.2
20260906102010 11 0 0.0 0.0 0.00 0.03 0.00 87 1017.2
20260906100010 11 0 0.0 0.0 0.00 0.03 0.00 85 1017.2
20260906095010 11 0 0.0 0.0 0.00 0.03 0.00 84 1017.3
20260906094010 11 0 0.0 0.0 0.00 0.03 0.00 84 1017.2
20260906091010 12 0 0.0 0.0 0.00 0.03 0.00 82 1017.3
20260906090010 12 0 0.0 0.0 0.00 0.03 0.00 82 1017.3
20260906085010 12 0 0.0 0.0 0.00 0.03 0.00 83 1017.3
20260906083010 12 0 0.0 0.0 0.00 0.03 0.00 82 1017.5
20260906081010 12 0 0.0 0.0 0.00 0.03 0.00 81 1017.5
20260906080010 12 0 0.0 0.0 0.00 0.03 0.00 80 1017.5
20260906075009 12 0 0.0 0.0 0.00 0.03 0.00 80 1017.5
20260906074010 12 0 0.0 0.0 0.00 0.03 0.00 79 1017.5
20260906072010 12 0 0.0 0.0 0.00 0.03 0.00 78 1017.7
20260906071011 12 0 0.0 0.0 0.00 0.03 0.00 77 1017.7
20260906070010 12 0 0.0 0.0 0.00 0.03 0.00 76 1017.5
20260906065010 13 0 0.0 0.0 0.00 0.03 0.03 76 1017.5
20260906064009 13 0 0.0 0.0 0.00 0.03 0.03 75 1017.7
20260906063010 13 0 0.0 0.0 0.00 0.03 0.03 74 1017.7
20260906062009 13 0 0.0 0.0 0.00 0.03 0.03 72 1017.8
20260906061010 13 0 0.0 0.0 0.00 0.03 0.03 71 1017.8
20260906060009 13 0 0.0 0.0 0.00 0.03 0.03 71 1017.8
20260906055009 14 0 0.0 0.0 0.00 0.03 0.03 70 1017.9
20260906054009 14 0 0.0 0.0 0.00 0.03 0.03 68 1017.9
20260906051010 15 0 0.0 0.0 0.00 0.03 0.03 64 1018.0
20260906050010 15 0 0.0 0.0 0.00 0.03 0.03 63 1018.0
20260906045009 16 0 0.0 0.0 0.00 0.03 0.03 62 1018.1
20260906044010 16 0 0.0 0.0 0.00 0.03 0.03 60 1018.1
20260906043010 16 0 0.0 0.0 0.00 0.03 0.03 58 1018.0
20260906042010 17 0 0.0 0.0 0.00 0.03 0.03 58 1018.0
20260906041010 17 0 0.0 0.0 0.00 0.03 0.03 56 1018.1
20260906035010 18 0 0.0 0.0 0.00 0.03 0.03 51 1018.0
20260906034009 18 0 0.0 0.0 0.00 0.03 0.03 50 1017.2
20260906033010 19 0 0.0 0.0 0.03 0.03 0.03 48 1017.9
20260906032009 20 0 0.0 0.0 0.03 0.03 0.03 47 1017.0
20260906031009 20 0 0.0 0.0 0.03 0.03 0.03 47 1017.0
20260906030013 20 0 0.0 0.0 0.03 0.03 0.03 46 1016.2
20260906025010 20 0 0.0 0.0 0.03 0.03 0.03 45 1017.7
20260906024010 21 0 0.0 0.0 0.03 0.03 0.03 43 1017.1
20260906023010 21 0 0.0 0.0 0.00 0.00 0.00 42 1017.7
20260906022009 22 0 0.0 0.0 0.00 0.00 0.00 41 1017.7
20260906021009 22 0 0.0 4.8 0.00 0.00 0.00 40 1017.7
20260906020009 22 273 0.0 9.7 0.00 0.00 0.00 39 1017.8
20260906015009 23 213 0.0 0.0 0.00 0.00 0.00 38 1017.8
20260906013009 23 213 0.0 0.0 0.00 0.00 0.00 36 1017.8
20260906010009 25 165 1.6 9.7 0.00 0.00 0.00 33 1017.8
20260906005009 25 289 1.6 11.3 0.00 0.00 0.00 31 1017.7
20260906004010 26 250 0.0 9.7 0.00 0.00 0.00 30 1017.7
20260906002010 26 296 3.2 12.9 0.00 0.00 0.00 30 1017.8
20260906000009 26 178 3.2 12.9 0.00 0.00 0.00 29 1017.7
20260905235011 26 146 1.6 11.3 0.00 0.00 0.00 30 1017.8
20260905230012 26 288 1.6 16.1 0.00 0.00 0.00 32 1017.9
20260905225010 25 145 1.6 12.9 0.00 0.00 0.00 32 1018.1
20260905223010 25 98 3.2 9.7 0.00 0.00 0.00 32 1018.3
20260905221010 26 216 1.6 19.3 0.00 0.00 0.00 32 1018.2
20260905220010 26 301 3.2 20.9 0.00 0.00 0.00 30 1018.3
20260905215010 26 215 1.6 12.9 0.00 0.00 0.00 30 1018.4